Regional Weather Roundup
Issued by NWS

Home | Current Version | Previous Version | Graphics & Text | Print | Product List | Glossary Off
Versions: 1 2 3 4 5 6 7 8 9 10 11 12 13 14 15 16 17 18 19 20 21 22 23 24 25 26 27 28 29 30 31 32 33 34 35 36 37 38 39 40 41 42 43 44 45 46 47 48 49 50

000
ASUS43 KDMX 101606
RWRIA

WEATHER ROUNDUP FOR IOWA
NATIONAL WEATHER SERVICE DES MOINES IA
1000 AM CST SAT DEC 10 2016

NOTE: "FAIR" INDICATES FEW OR NO CLOUDS BELOW 12,000 FEET WITH NO
SIGNIFICANT WEATHER AND/OR OBSTRUCTIONS TO VISIBILITY.

* - THESE STATIONS ARE NOT NWS STATIONS...THUS NOT UNDER NWS
QUALITY CONTROL.  THEY ALSO DO NOT REPORT WEATHER SUCH
AS PRECIPITATION OR FOG.

IAZ001>003-012>014-020>022-031>034-043>046-101700-
   NORTHWEST IOWA

CITY           SKY/WX    TMP DP  RH WIND       PRES   REMARKS
CARROLL *      SNOW      21  19  93 SE10      30.37F VSB 1/2 WCI  10
CHEROKEE *     LGT SNOW  16  13  90 E15       30.33F WCI   1
DENISON *      LGT SNOW  21  18  86 SE8G14    30.33F WCI  12
LE MARS *      LGT SNOW  18  16  93 SE12G17   30.34S WCI   5
ORANGE CITY *  LGT SNOW  14  12  92 E8        30.31F WCI   3
SHELDON *      LGT SNOW  12  10  92 E16       30.30F WCI  -4
SIOUX CITY     LGT SNOW  21  18  86 SE13      30.33F VSB 1   WCI   9
SPENCER        LGT SNOW  11   8  88 SE7       30.37F FOG     WCI   0
STORM LAKE *   LGT SNOW  14  12  92 E14       30.34F WCI  -1
$$

IAZ055>058-069>071-079>083-090>094-101700-
   SOUTHWEST IOWA

CITY           SKY/WX    TMP DP  RH WIND       PRES   REMARKS
ATLANTIC *     FLURRIES  23  19  86 SE9       30.37F WCI  13
AUDUBON *      LGT SNOW  21  18  86 SE8       30.36F WCI  12
CLARINDA *     CLOUDY    27  16  63 S8        30.39F WCI  18
COUNCIL BLFS * CLOUDY    25  19  80 SE9       30.34F WCI  15
CRESTON *      CLOUDY    23  18  80 SE12      30.39F WCI  12
HARLAN  *      CLOUDY    21  21 100 SE10      30.39F WCI  10
LAMONI         CLOUDY    25  11  55 SE7       30.40F WCI  17
RED OAK *      CLOUDY    27  18  69 SE9       30.36F WCI  17
SHENANDOAH *   CLOUDY    27  16  63 SE12      30.38F WCI  16
$$

IAZ047>049-059>061-072>074-084-101700-
   CENTRAL IOWA

CITY           SKY/WX    TMP DP  RH WIND       PRES   REMARKS
AMES           LGT SNOW  22  16  78 SE9       30.43F WCI  12
ANKENY *       LGT SNOW  23  16  74 SE10      30.44F WCI  12
BOONE *        LGT SNOW  21  16  79 SE12      30.40S WCI   9
CHARITON *     SNOW      21  19  93 SE7       30.43F VSB 1/4 WCI  13
DES MOINES     LGT SNOW  24  17  74 SE12      30.43F WCI  13
GRINNELL*      CLOUDY    23  15  69 SE7       30.44F WCI  15
KNOXVILLE *    MIX PCPN  23  14  68 SE9       30.43F WCI  13
MARSHALLTOWN   LGT SNOW  21  14  74 E8        30.44F WCI  11
NEWTON *       MOSUNNY   23  14  68 SE13      30.44F WCI  11
PELLA *        LGT SNOW  24  14  64 SE8       30.46F WCI  15
PERRY *        LGT SNOW  22  20  93 SE8       30.41F WCI  13
$$

IAZ004>006-015-016-023>025-035-036-101700-
   NORTH CENTRAL IOWA

CITY           SKY/WX    TMP DP  RH WIND       PRES   REMARKS
ALGONA *       LGT SNOW  12   9  85 E8        30.40F WCI   1
CLARION *      MOSUNNY   16  14  93 E9        30.42F FOG     WCI   4
ESTHERVILLE    LGT SNOW   8   5  87 E9        30.39F FOG     WCI  -5
FORT DODGE *   CLOUDY    18  12  79 E9        30.41F WCI   6
MASON CITY     LGT SNOW  13   9  84 E7        30.44F FOG     WCI   3
FOREST CITY *  LGT SNOW  12   9  85 E6        30.42F WCI   3
WEBSTER CITY * LGT SNOW  19  18  93 E10       30.40S WCI   8
IOWA FALLS *   LGT SNOW  20  17  87 E7        30.45R WCI  11
$$

IAZ007>011-017>019-026>030-037>042-050>054-066-101700-
   NORTHEAST IOWA

CITY           SKY/WX    TMP DP  RH WIND       PRES   REMARKS
CEDAR RAPIDS   CLOUDY    21  15  78 S5        30.47S WCI  15
CHARLES CITY * LGT SNOW  14   9  79 E5        30.45F WCI   6
CLINTON *      CLOUDY    23  16  74 CALM      30.53S
DECORAH *      CLOUDY    10   5  79 CALM      30.45F
DUBUQUE        CLOUDY    17  14  88 S5        30.48S WCI  10
MONTICELLO *   CLOUDY    19  14  79 CALM      30.49F
OELWEIN *      CLOUDY    16  12  86 E5        30.47S WCI   9
WATERLOO       LGT SNOW  18  14  84 E7        30.47F FOG     WCI   9
$$

IAZ064-065-067-068-078-101700-
   EAST CENTRAL IOWA

CITY           SKY/WX    TMP DP  RH WIND       PRES   REMARKS
DAVENPORT      CLOUDY    22  14  71 SW7       30.52S WCI  13
IOWA CITY      CLOUDY    23  14  68 MISG      30.52S
MUSCATINE *    CLOUDY    25  14  63 CALM      30.53R
QUAD CITIES    CLOUDY    24  13  62 SW5       30.53S WCI  18
$$

IAZ062-063-075>077-085>089-095>099-101700-
   SOUTHEAST IOWA

CITY           SKY/WX    TMP DP  RH WIND       PRES   REMARKS
BURLINGTON     CLOUDY    25  14  63 SE6       30.51F WCI  18
FAIRFIELD *    CLOUDY    25  10  54 SE8       30.49S WCI  16
FORT MADISON * CLOUDY    27  14  59 SE3       30.52R
KEOKUK *       PTSUNNY   27  14  59 SE6       30.51R WCI  20
OSKALOOSA *    CLOUDY    24  14  65 SE12      30.47F WCI  13
CENTERVILLE *  FLURRIES  23  18  80 E7        30.46F WCI  15
OTTUMWA        CLOUDY    25  11  55 SE9       30.47R WCI  15
WASHINGTON *   CLOUDY    25  16  68 SE6       30.51S WCI  18
$$

ABBREVIATIONS USED IN REMARKS
   TC - TEMPERATURES IN CELSIUS
  WCI - WIND CHILL INDEX
   HX - HEAT INDEX
  VSB - VISIBILITY
$$





USA.gov is the U.S. government's official web portal to all federal, state and local government web resources and services.